Evergreen, AL

4:39 AM CST on November 25, 2017 (GMT -0600)
Middleton

Weather History for KGZH - January, 2014

Change the Weather History Date:

Tuesday, January 21, 2014

  Actual Average (KPRN) Record (KPRN)
Temperature  
Mean Temperature 44 °F -  
Max Temperature 57 °F 55 °F 80 °F (1929)
Min Temperature 28 °F 34 °F -1 °F (1985)
Degree Days  
Heating Degree Days 22    
Moisture  
Dew Point 31 °F    
Average Humidity 61    
Maximum Humidity 93    
Minimum Humidity 27    
Precipitation  
Precipitation 0.00 in - - ()
Sea Level Pressure  
Sea Level Pressure 29.99 in    
Wind  
Wind Speed 6 mph (NNW)    
Max Wind Speed 18 mph    
Max Gust Speed 30 mph    
Visibility 10 miles    
Events      
Averages and records for this station are not official NWS values.
T = Trace of Precipitation, MM = Missing Value Source: NWS Daily Summary

Daily Weather History Graph

Daily Weather History Graph

Search for Another Location

Airport or City:

Trip Planner

Search our weather history database for the weather conditions in past years. The results will help you decide how hot, cold, wet, or windy it might be!

Date:

Astronomy

Jan. 21, 2014 Rise Set
Actual Time 6:46 AM CST 5:13 PM CST
Civil Twilight 6:20 AM CST 5:39 PM CST
Nautical Twilight 5:50 AM CST 6:08 PM CST
Astronomical Twilight 5:21 AM CST 6:37 PM CST
Moon 10:21 PM CST (1/21) 9:37 AM CST (1/21)
Length of Visible Light 11h 18m
Length of Day
10h 27m
Waning Gibbous, 74% of the Moon is Illuminated
Jan 21
Waning Gibbous
Jan 23
Last Quarter
Jan 30
New
Feb 6
First Quarter
Feb 14
Full

Hourly Weather History & Observations

Time (CST) Temp. Windchill Dew Point Humidity Pressure Visibility Wind Dir Wind Speed Gust Speed Precip Events Conditions
12:53 AM 36.0 °F - 32.0 °F 86% 29.96 in 10.0 mi Calm Calm - N/A   Clear
1:53 AM 37.9 °F - 35.1 °F 89% 29.96 in 10.0 mi Calm Calm - N/A   Scattered Clouds
2:53 AM 39.0 °F 36.8 °F 35.1 °F 86% 29.93 in 10.0 mi ESE 3.5 mph - N/A   Scattered Clouds
3:53 AM 39.9 °F - 36.0 °F 86% 29.91 in 10.0 mi Calm Calm - N/A   Partly Cloudy
4:12 AM 42.1 °F - 39.0 °F 89% 29.90 in 9.0 mi Calm Calm - N/A   Mostly Cloudy
4:24 AM 44.1 °F - 41.0 °F 89% 29.90 in 8.0 mi Calm Calm - N/A   Overcast
4:51 AM 44.6 °F - 42.8 °F 93% 29.89 in 9.0 mi Calm Calm - N/A   Overcast
4:53 AM 45.0 °F - 42.1 °F 90% 29.89 in 9.0 mi Calm Calm - N/A   Overcast
5:07 AM 46.9 °F - 42.1 °F 83% 29.90 in 9.0 mi North - - N/A   Overcast
5:46 AM 55.9 °F - 52.0 °F 87% 29.90 in 8.0 mi West 10.4 mph 19.6 mph N/A   Overcast
5:53 AM 55.9 °F - 52.0 °F 87% 29.90 in 9.0 mi WNW 9.2 mph 19.6 mph N/A   Overcast
6:41 AM 55.0 °F - 48.9 °F 80% 29.91 in 10.0 mi WNW 8.1 mph - N/A   Mostly Cloudy
6:53 AM 54.0 °F - 48.9 °F 83% 29.92 in 10.0 mi WNW 4.6 mph - N/A   Mostly Cloudy
7:53 AM 53.1 °F - 39.9 °F 61% 29.96 in 10.0 mi NNW 13.8 mph 21.9 mph N/A   Clear
8:53 AM 53.1 °F - 33.1 °F 47% 29.99 in 10.0 mi NNW 18.4 mph 29.9 mph N/A   Clear
9:53 AM 55.0 °F - 30.9 °F 40% 30.00 in 10.0 mi NNW 9.2 mph 19.6 mph N/A   Clear
10:53 AM 55.0 °F - 25.0 °F 31% 30.00 in 10.0 mi NNW 17.3 mph 24.2 mph N/A   Clear
11:53 AM 55.9 °F - 25.0 °F 30% 29.97 in 10.0 mi WNW 11.5 mph 24.2 mph N/A   Clear
12:53 PM 57.0 °F - 24.1 °F 28% 29.95 in 10.0 mi NW 13.8 mph 27.6 mph N/A   Clear
1:53 PM 57.0 °F - 24.1 °F 28% 29.94 in 10.0 mi NNW 13.8 mph 26.5 mph N/A   Clear
2:53 PM 53.1 °F - 19.9 °F 27% 29.98 in 10.0 mi NNW 15.0 mph 26.5 mph N/A   Clear
3:53 PM 50.0 °F - 19.9 °F 31% 30.03 in 10.0 mi NNW 17.3 mph 28.8 mph N/A   Clear
4:53 PM 45.0 °F 39.3 °F 19.9 °F 37% 30.06 in 10.0 mi NNW 11.5 mph 21.9 mph N/A   Clear
5:53 PM 41.0 °F 33.1 °F 19.9 °F 43% 30.10 in 10.0 mi North 15.0 mph 23.0 mph N/A   Clear
6:53 PM 37.9 °F 30.0 °F 19.0 °F 47% 30.12 in 10.0 mi NNW 12.7 mph 19.6 mph N/A   Clear
7:53 PM 36.0 °F 29.0 °F 18.0 °F 48% 30.14 in 10.0 mi NNW 9.2 mph - N/A   Clear
8:53 PM 35.1 °F 27.9 °F 16.0 °F 46% 30.15 in 10.0 mi NNW 9.2 mph - N/A   Clear
9:53 PM 33.1 °F 25.5 °F 16.0 °F 50% 30.18 in 10.0 mi NNW 9.2 mph 17.3 mph N/A   Clear
10:53 PM 30.9 °F 23.5 °F 15.1 °F 52% 30.17 in 10.0 mi North 8.1 mph - N/A   Clear
11:53 PM 28.9 °F 23.9 °F 15.1 °F 56% 30.18 in 10.0 mi NW 4.6 mph - N/A   Clear